Simultaneous Nadir Overpasses (SNOs) Predictions

Prediction of SNOs between METOP-B and TERRA Satellite Orbit:

Table of predicted SNOs for the next 14.0 days since TLE Epoch: 9/20/2025
Index Date (METOP-B) Time (METOP-B) Lat,Lon (METOP-B) SZA (METOP-B ) Date (TERRA) Time (TERRA) Lat,Lon (TERRA) SZA (TERRA ) Distance(km) Time Diff (sec)
1 09/22/2025 12:12:42 75.41, -12.46 75.35 09/22/2025 12:13:39 75.41, -12.49 75.34 0.94 57
2 09/22/2025 13:03:04 -76.35, 157.96 103.77 09/22/2025 13:02:41 -76.34, 157.90 103.78 1.85 23
3 09/25/2025 01:52:18 -75.74, -36.38 103.36 09/25/2025 01:52:22 -75.75, -36.31 103.35 2.15 4
4 09/25/2025 02:40:36 80.87, 165.23 82.77 09/25/2025 02:39:23 81.28, 164.06 83.03 49.61 73
5 09/27/2025 14:41:23 -75.53, 130.70 102.57 09/27/2025 14:41:55 -75.53, 130.65 102.58 1.67 32
6 09/27/2025 15:31:45 76.33, -59.31 78.19 09/27/2025 15:30:56 76.33, -59.30 78.19 0.21 49
7 09/30/2025 03:30:34 -75.03, -63.05 102.04 09/30/2025 03:31:33 -75.03, -63.08 102.06 1.17 59
8 09/30/2025 04:20:55 75.89, 106.91 78.76 09/30/2025 04:20:33 75.90, 106.95 78.76 1.34 22
9 10/02/2025 17:10:04 75.48, -86.66 79.36 10/02/2025 17:10:09 75.48, -86.63 79.36 0.82 5



Historial Predications of SNOs between METOP-B and TERRA
